Radioactive Concentration measured by Seawater Radiation Monitor near Fukushima Daiichi Nuclear Power Station
Date,Time,Cs137(Bq/L),Cs134(Bq/L),Total β(Bq/L)
2019/11/13,00:00,1.1,ND,ND
2019/11/13,00:10,1.1,ND,ND
2019/11/13,00:20,1.1,ND,ND
2019/11/13,00:30,1.1,ND,ND
2019/11/13,00:40,1.1,ND,ND
2019/11/13,00:50,1.1,ND,ND
2019/11/13,01:00,1.1,ND,ND
2019/11/13,01:10,1.1,ND,ND
2019/11/13,01:20,1.1,ND,ND
2019/11/13,01:30,1.0,ND,ND
2019/11/13,01:40,1.0,ND,ND
2019/11/13,01:50,1.0,ND,ND
2019/11/13,02:00,1.0,ND,ND
2019/11/13,02:10,0.99,ND,ND
2019/11/13,02:20,1.0,ND,ND
2019/11/13,02:30,1.0,ND,ND
2019/11/13,02:40,1.0,ND,ND
2019/11/13,02:50,0.99,ND,ND
2019/11/13,03:00,1.0,ND,ND
2019/11/13,03:10,0.98,ND,ND
2019/11/13,03:20,0.96,ND,ND
2019/11/13,03:30,0.98,ND,ND
2019/11/13,03:40,1.0,ND,ND
2019/11/13,03:50,1.0,ND,ND
2019/11/13,04:00,1.0,ND,ND
2019/11/13,04:10,1.0,ND,ND
2019/11/13,04:20,1.0,ND,ND
2019/11/13,04:30,1.0,ND,ND
2019/11/13,04:40,0.99,ND,ND
2019/11/13,04:50,1.0,ND,ND
2019/11/13,05:00,1.0,ND,ND
2019/11/13,05:10,1.0,ND,ND
2019/11/13,05:20,1.0,ND,ND
2019/11/13,05:30,1.0,ND,ND
2019/11/13,05:40,1.0,ND,ND
2019/11/13,05:50,1.0,ND,ND
2019/11/13,06:00,1.0,ND,ND
2019/11/13,06:10,1.0,ND,ND
2019/11/13,06:20,1.1,ND,ND
2019/11/13,06:30,1.1,ND,ND
2019/11/13,06:40,1.1,ND,ND
2019/11/13,06:50,1.1,ND,ND
2019/11/13,07:00,1.1,ND,ND
2019/11/13,07:10,1.1,ND,ND
2019/11/13,07:20,1.1,ND,ND
2019/11/13,07:30,1.1,ND,ND
2019/11/13,07:40,1.1,ND,ND
2019/11/13,07:50,1.1,ND,ND
2019/11/13,08:00,1.1,ND,ND
2019/11/13,08:10,1.1,ND,ND
2019/11/13,08:20,1.1,ND,ND
2019/11/13,08:30,1.1,ND,10
2019/11/13,08:40,1.1,ND,11
2019/11/13,08:50,1.1,ND,ND
2019/11/13,09:00,1.1,ND,ND
2019/11/13,09:10,1.1,ND,ND
2019/11/13,09:20,1.1,ND,ND
2019/11/13,09:30,1.1,ND,ND
2019/11/13,09:40,1.1,ND,ND
2019/11/13,09:50,1.1,ND,ND
2019/11/13,10:00,1.1,ND,ND
2019/11/13,10:10,1.2,ND,ND
2019/11/13,10:20,1.2,ND,ND
2019/11/13,10:30,1.2,ND,10
2019/11/13,10:40,1.1,ND,ND
2019/11/13,10:50,1.0,ND,ND
2019/11/13,11:00,1.0,ND,ND
2019/11/13,11:10,1.1,ND,ND
2019/11/13,11:20,0.96,ND,ND
2019/11/13,11:30,0.96,ND,ND
2019/11/13,11:40,1.0,ND,ND
2019/11/13,11:50,1.0,ND,ND
2019/11/13,12:00,1.0,ND,ND
2019/11/13,12:10,1.0,ND,ND
2019/11/13,12:20,1.0,ND,ND
2019/11/13,12:30,0.99,ND,ND
2019/11/13,12:40,0.99,ND,ND
2019/11/13,12:50,1.0,ND,ND
2019/11/13,13:00,1.0,ND,ND
2019/11/13,13:10,1.0,ND,11
2019/11/13,13:20,1.0,ND,9.9
2019/11/13,13:30,1.0,ND,ND
2019/11/13,13:40,0.98,ND,ND
2019/11/13,13:50,0.96,ND,ND
2019/11/13,14:00,0.95,ND,ND
2019/11/13,14:10,0.95,ND,ND
2019/11/13,14:20,0.92,ND,8.9
2019/11/13,14:30,0.87,ND,11
2019/11/13,14:40,0.94,ND,11
2019/11/13,14:50,0.93,ND,9.6
2019/11/13,15:00,0.93,ND,ND
2019/11/13,15:10,0.93,ND,ND
2019/11/13,15:20,0.93,ND,ND
2019/11/13,15:30,0.94,ND,ND
2019/11/13,15:40,0.94,ND,ND
2019/11/13,15:50,0.91,ND,ND
2019/11/13,16:00,0.92,ND,ND
2019/11/13,16:10,0.98,ND,ND
2019/11/13,16:20,0.99,ND,ND
2019/11/13,16:30,1.0,ND,ND
2019/11/13,16:40,1.0,ND,ND
2019/11/13,16:50,1.0,ND,ND
2019/11/13,17:00,0.91,ND,ND
2019/11/13,17:10,0.97,ND,ND
2019/11/13,17:20,0.96,ND,ND
2019/11/13,17:30,0.95,ND,ND
2019/11/13,17:40,0.95,ND,ND
2019/11/13,17:50,0.96,ND,ND
2019/11/13,18:00,0.93,ND,ND
2019/11/13,18:10,0.96,ND,ND
2019/11/13,18:20,0.98,ND,ND
2019/11/13,18:30,1.0,ND,ND
2019/11/13,18:40,1.0,ND,11
2019/11/13,18:50,0.99,ND,ND
2019/11/13,19:00,1.0,ND,ND
2019/11/13,19:10,1.0,ND,ND
2019/11/13,19:20,1.0,ND,9.0
2019/11/13,19:30,1.0,ND,9.3
2019/11/13,19:40,1.0,ND,ND
2019/11/13,19:50,1.0,ND,ND
2019/11/13,20:00,1.0,ND,10
2019/11/13,20:10,1.0,ND,10
2019/11/13,20:20,1.1,ND,ND
2019/11/13,20:30,1.0,ND,ND
2019/11/13,20:40,1.1,ND,ND
2019/11/13,20:50,1.1,ND,ND
2019/11/13,21:00,1.1,ND,ND
2019/11/13,21:10,1.1,ND,ND
2019/11/13,21:20,1.1,ND,ND
2019/11/13,21:30,1.0,ND,9.2
2019/11/13,21:40,1.0,ND,9.7
2019/11/13,21:50,1.1,ND,ND
2019/11/13,22:00,1.0,ND,ND
2019/11/13,22:10,1.1,ND,ND
2019/11/13,22:20,1.1,ND,ND
2019/11/13,22:30,1.1,ND,ND
2019/11/13,22:40,1.1,ND,ND
2019/11/13,22:50,1.1,ND,ND
2019/11/13,23:00,1.1,ND,ND
2019/11/13,23:10,1.1,ND,ND
2019/11/13,23:20,1.1,ND,ND
2019/11/13,23:30,1.1,ND,ND
2019/11/13,23:40,1.1,ND,ND
2019/11/13,23:50,1.1,ND,ND
